Location: Joplin, MO
(37.0842°N, 94.5133°W)
Time: 06:28:47
(UTC+01:00)

BlueWalker 3 - Visible Passes

Search period start: 28 November 2022 00:00
Search period end: 08 December 2022 00:00
Orbit: 500 x 519 km, 53.2° (Epoch: 27 November)

Date Brightness Start Highest point End Pass type
(mag) Time Alt. Az. Time Alt. Az. Time Alt. Az.
28 Nov 4.2 00:48:21 10° WNW 00:51:03 18° NNW 00:53:44 10° NNE visible
29 Nov 4.2 00:30:07 10° WNW 00:32:44 17° NNW 00:35:20 10° NNE visible
06 Dec 4.4 01:42:55 10° N 01:43:22 11° N 01:43:22 11° N visible
07 Dec 4.1 01:24:26 10° N 01:25:54 13° NNE 01:25:54 13° NNE visible
